STARLINK-1280, 45388

Orbit data source: Space-Track

STARLINK-1280, 45388 is a payload satellite owned by SpaceX/Seattle (US) in LEO that was launched on Wed, 18 Mar 2020 UTC via an FALCON 9 launch vehicle from the Air Force Eastern Test Range (AFETR). Payload-class satellites include a variety of spacecraft equipped with specific instruments for various scientific and technological missions. These include communications satellites like Starlink; space stations such as the ISS; scientific satellites like the Hubble; Earth observation satellites from companies like Planet Labs, Umbra, and HawkEye 360; GPS; miniature CubeSats for education and research; and military/defense satellites.

Loading next visibility...
Identifier
45388, 2020-019AE
Orbit
LEO
Country
Flag of USUS
Related business
Manufacturer
SpaceX/Seattle
Mission
Partially operational Commercial Communications
Bus & Motor
STARLINK, Unknown motor
Mass
260 kg wet, ~248 kg dry
Launch date (UTC)
2020-03-18 (6 years ago)
Launch vehicle
FALCON 9
Launch site
Air Force Eastern Test Range (AFETR)
Object type
Payload
Rocket body
Debris
Shape & HBR
Box + 1 Pan, 10.1 m
Radar Cross Section
13.562 m², Large (>1 m²)

Expand to show TLE details & history
Last TLE update: 3 hours ago

TLE from 3 hours ago
0 STARLINK-1280
1 45388U 20019AE  26178.25002315  .00226817  00000-0  84038-3 0  9994
2 45388  53.0338 297.5046 0003874 344.3261  16.7470 15.86970044  6016
Epoch: 2026-06-27T06:00Z
TLE epoch observation values (Epoch: 2026-06-27T06:00:02.000Z)
Latitude
0.79078°
Longitude
-67.27876°
Altitude
309.111 km
Speed
7.725 km/s
True Right ascension
19h 52m 23s
True Declination
0° 47' 09"
Sunlit
Object was in full shadow at epoch
Visualization orbit readout
Latitude
Unknown
Longitude
Unknown
Altitude
Unknown
Speed
Unknown
Apparent Right ascension
Unknown
Apparent Declination
Unknown
Sunlit
N/A
Visualization observer readout
Local Sidereal Time
19:53:47
Azimuth
Unknown
Elevation
Unknown
Doppler factor
Unknown
Orbital elements
Apogee altitude
313.658 km
Perigee altitude
308.475 km
Semi-major axis
6,689.204 km
Eccentricity
0.00039
Inclination
53.0338°
RAAN
297.5046°
Arg. of periapsis
344.3261°
True anomaly
16.7598°
Mean anomaly
16.747°
Eccentric anomaly
16.7534°
Mean motion
3.96718 °/min
Orbital period
90.74 mins
BSTAR
0.00084038
Loading maneuver chart data...
Computing Atmospheric mass density...

Documentation

Showing up to 5 results
|